FW4622 Weather Reports


time (UTC)temp
C
wind
direction
speed
KPH
gust
KPH
rain 1hr
cm
rain 24hr
cm
rain mn
cm
humidity
%
barometer
mb
20260509064704 21 228 0.0 0.0 0.00 0.00 0.00 81 1010.1
20260509064205 21 162 0.0 0.0 0.00 0.00 0.00 81 1009.8
20260509063204 21 154 0.0 0.0 0.00 0.00 0.00 81 1010.0
20260509062704 21 153 0.0 0.0 0.00 0.00 0.00 81 1009.9
20260509062205 21 192 0.0 0.0 0.00 0.00 0.00 80 1010.1
20260509061705 21 280 0.0 0.0 0.00 0.00 0.00 80 1010.2
20260509061204 21 137 0.0 0.0 0.00 0.00 0.00 80 1009.9
20260509060704 21 168 0.0 1.6 0.00 0.00 0.00 80 1010.0
20260509060204 21 213 0.0 1.6 0.00 0.00 0.00 79 1010.3
20260509055704 21 261 0.0 1.6 0.00 0.00 0.00 79 1010.6
20260509055203 22 261 0.0 1.6 0.00 0.00 0.00 78 1010.5
20260509054704 22 261 0.0 0.0 0.00 0.00 0.00 78 1010.8
20260509054204 22 261 0.0 1.6 0.00 0.00 0.00 78 1010.7
20260509053704 22 153 0.0 0.0 0.00 0.00 0.00 78 1010.3
20260509053204 22 164 1.6 3.2 0.00 0.00 0.00 78 1010.7
20260509052704 22 233 0.0 3.2 0.00 0.00 0.00 78 1011.2
20260509052204 22 256 0.0 1.6 0.00 0.00 0.00 78 1011.4
20260509051705 22 263 0.0 3.2 0.00 0.00 0.00 78 1011.4
20260509051205 22 278 0.0 1.6 0.00 0.00 0.00 79 1010.9
20260509050705 21 200 0.0 0.0 0.00 0.00 0.00 79 1010.4
20260509050204 21 167 0.0 1.6 0.00 0.00 0.00 78 1010.1
20260509045704 21 283 0.0 0.0 0.00 0.00 0.00 78 1010.0
20260509045204 22 283 0.0 3.2 0.00 0.00 0.00 78 1010.0
20260509044704 21 83 0.0 1.6 0.00 0.00 0.00 78 1009.7
20260509043704 22 154 1.6 3.2 0.00 0.00 0.00 77 1009.9
20260509043204 22 91 0.0 0.0 0.00 0.00 0.00 77 1010.0
20260509042704 22 91 0.0 1.6 0.00 0.00 0.00 77 1009.8
20260509042203 22 132 1.6 4.8 0.00 0.00 0.00 76 1009.7
20260509041704 22 121 3.2 4.8 0.00 0.00 0.00 76 1009.6
20260509041204 22 120 0.0 1.6 0.00 0.00 0.00 76 1010.1
20260509040704 22 13 0.0 1.6 0.00 0.00 0.00 76 1010.3
20260509040204 22 112 1.6 3.2 0.00 0.00 0.00 76 1010.2
20260509035704 22 113 1.6 1.6 0.00 0.00 0.00 75 1010.8
20260509035204 22 114 0.0 1.6 0.00 0.00 0.00 76 1010.8
20260509034704 22 113 0.0 1.6 0.00 0.00 0.00 76 1010.7
20260509034204 22 113 0.0 1.6 0.00 0.00 0.00 76 1010.6
20260509033704 22 153 0.0 1.6 0.00 0.00 0.00 76 1010.5
20260509033204 22 162 0.0 0.0 0.00 0.00 0.00 76 1010.3
20260509032704 22 162 0.0 0.0 0.00 0.00 0.00 76 1010.2
20260509032204 22 162 0.0 0.0 0.00 0.00 0.00 76 1010.1
20260509031204 22 15 0.0 3.2 0.00 0.00 0.00 76 1010.1
20260509030704 22 63 0.0 1.6 0.00 0.00 0.00 76 1010.0
20260509025704 22 146 0.0 0.0 0.00 0.00 0.00 76 1009.7
20260509024704 22 104 1.6 3.2 0.00 0.00 0.00 76 1009.6
20260509023204 22 127 0.0 1.6 0.00 0.00 0.00 76 1009.3
20260509022703 22 127 0.0 1.6 0.00 0.00 0.00 76 1009.2
20260509022204 22 99 0.0 3.2 0.00 0.00 0.00 76 1009.1
20260509021704 22 129 1.6 4.8 0.00 0.00 0.00 76 1009.1
20260509021203 22 153 1.6 4.8 0.00 0.00 0.00 76 1009.1
20260509020204 22 102 0.0 1.6 0.00 0.00 0.00 75 1009.0
20260509015704 22 115 1.6 9.7 0.00 0.00 0.00 75 1009.0
20260509015205 22 101 1.6 4.8 0.00 0.00 0.00 75 1009.0
20260509014704 22 86 1.6 4.8 0.00 0.00 0.00 75 1009.0
20260509014204 22 139 0.0 3.2 0.00 0.00 0.00 75 1009.0
20260509013704 22 126 0.0 4.8 0.00 0.00 0.00 74 1009.0
20260509013204 22 131 1.6 4.8 0.00 0.00 0.00 74 1008.9
20260509012704 22 138 0.0 3.2 0.00 0.00 0.00 74 1008.8
20260509012206 22 111 0.0 1.6 0.00 0.00 0.00 74 1008.7
20260509011704 22 100 0.0 4.8 0.00 0.00 0.00 74 1008.6
20260509011204 22 105 1.6 4.8 0.00 0.00 0.00 74 1008.5
20260509010704 23 129 1.6 3.2 0.00 0.00 0.00 73 1008.4
20260509010205 23 113 1.6 3.2 0.00 0.00 0.00 73 1008.4
20260509005704 23 82 0.0 4.8 0.00 0.00 0.00 73 1008.3
20260509004204 23 119 1.6 4.8 0.00 0.00 0.00 73 1008.2
20260509003704 23 138 1.6 4.8 0.00 0.00 0.00 72 1008.1
20260509003203 23 152 1.6 4.8 0.00 0.00 0.00 72 1008.0
20260509002704 23 155 1.6 4.8 0.00 0.00 0.00 72 1008.0
20260509002205 23 146 1.6 9.7 0.00 0.00 0.00 72 1008.0
20260509001704 23 117 0.0 4.8 0.00 0.00 0.00 71 1008.0
20260509001204 23 117 1.6 4.8 0.00 0.00 0.00 71 1008.1
20260509000704 23 96 1.6 4.8 0.00 0.00 0.00 71 1008.2
20260509000204 23 132 0.0 3.2 0.00 0.00 0.00 71 1008.3
20260508235204 23 114 1.6 4.8 0.00 0.00 0.00 70 1008.6
20260508234703 23 109 1.6 4.8 0.00 0.00 0.00 70 1008.7
20260508233203 24 119 3.2 4.8 0.00 0.00 0.00 69 1008.7
20260508232704 24 108 1.6 9.7 0.00 0.00 0.00 69 1008.7
20260508232204 24 106 0.0 4.8 0.00 0.00 0.00 68 1008.8
20260508231704 25 102 1.6 4.8 0.00 0.00 0.00 68 1008.8
20260508231203 25 114 1.6 4.8 0.00 0.00 0.00 68 1008.8
20260508230704 25 129 3.2 9.7 0.00 0.00 0.00 67 1008.8
20260508230203 25 74 1.6 4.8 0.00 0.00 0.00 68 1008.8
20260508225703 25 109 1.6 8.0 0.00 0.00 0.00 67 1008.8
20260508225204 25 119 1.6 8.0 0.00 0.00 0.00 66 1008.9
20260508224704 25 183 1.6 4.8 0.00 0.00 0.00 66 1008.9
20260508224204 25 51 1.6 8.0 0.00 0.00 0.00 66 1008.8
20260508223704 26 139 1.6 4.8 0.00 0.00 0.00 65 1008.8
20260508223204 26 270 0.0 9.7 0.00 0.00 0.00 66 1008.7
20260508222703 25 141 1.6 4.8 0.00 0.00 0.00 66 1008.7
20260508221704 26 90 3.2 11.3 0.00 0.00 0.00 65 1008.7
20260508221203 26 8 3.2 4.8 0.00 0.00 0.00 64 1008.6
20260508215204 27 176 1.6 9.7 0.00 0.00 0.00 63 1008.6
20260508214204 26 94 1.6 4.8 0.00 0.00 0.00 64 1008.7
20260508213704 25 193 1.6 4.8 0.00 0.00 0.00 65 1008.7
20260508212704 25 130 3.2 11.3 0.00 0.00 0.00 66 1008.6
20260508212203 25 124 1.6 11.3 0.00 0.00 0.00 69 1008.6
20260508211703 25 108 4.8 9.7 0.00 0.00 0.00 66 1008.8
20260508211204 25 166 1.6 8.0 0.00 0.00 0.00 68 1008.9
20260508210704 23 149 1.6 11.3 0.00 0.00 0.00 69 1009.1
20260508210204 23 107 3.2 8.0 0.00 0.00 0.00 69 1009.4
20260508205205 23 175 1.6 4.8 0.00 0.00 0.00 68 1010.1
20260508204704 23 82 1.6 4.8 0.00 0.00 0.00 68 1010.2
20260508204204 23 252 0.0 3.2 0.00 0.00 0.00 67 1010.3
20260508203704 24 218 0.0 3.2 0.00 0.00 0.00 67 1010.5
20260508203205 24 160 0.0 4.8 0.00 0.00 0.00 66 1010.6
20260508202705 25 195 0.0 3.2 0.00 0.00 0.00 66 1010.7
20260508202204 25 238 0.0 3.2 0.00 0.00 0.00 66 1010.6
20260508201705 25 161 1.6 4.8 0.00 0.00 0.00 65 1010.6
20260508200704 25 269 1.6 4.8 0.00 0.00 0.00 64 1010.5
20260508200205 26 94 0.0 4.8 0.00 0.00 0.00 64 1010.6
20260508195704 26 225 1.6 3.2 0.00 0.00 0.00 63 1010.5
20260508194704 26 122 1.6 9.7 0.00 0.00 0.00 61 1010.6
20260508194204 26 153 0.0 3.2 0.00 0.00 0.00 63 1010.6
20260508192705 26 311 0.0 4.8 0.00 0.00 0.00 62 1010.9
20260508191704 26 147 3.2 4.8 0.00 0.00 0.00 61 1010.8
20260508191205 26 154 3.2 8.0 0.00 0.00 0.00 62 1010.9
20260508190704 26 150 3.2 8.0 0.00 0.00 0.00 61 1010.9
20260508190204 26 135 1.6 8.0 0.00 0.00 0.00 61 1010.9
20260508185704 27 107 1.6 8.0 0.00 0.00 0.00 60 1011.0
20260508185204 27 149 3.2 8.0 0.00 0.00 0.00 59 1011.1
20260508184204 27 98 1.6 4.8 0.00 0.00 0.00 60 1011.1
20260508183705 27 74 0.0 3.2 0.00 0.00 0.00 59 1011.2
20260508183205 27 148 3.2 4.8 0.00 0.00 0.00 60 1011.2
20260508182704 26 145 1.6 8.0 0.00 0.00 0.00 59 1011.4
20260508182204 26 124 3.2 8.0 0.00 0.00 0.00 60 1011.5
20260508181704 26 110 1.6 4.8 0.00 0.00 0.00 61 1011.6
20260508181204 26 78 3.2 8.0 0.00 0.00 0.00 60 1011.7
20260508180705 26 113 1.6 4.8 0.00 0.00 0.00 60 1011.8
20260508180204 26 143 1.6 4.8 0.00 0.00 0.00 60 1012.0
20260508175704 26 101 3.2 8.0 0.00 0.00 0.00 59 1012.0
20260508175204 26 120 1.6 8.0 0.00 0.00 0.00 60 1012.0
20260508174704 26 115 1.6 8.0 0.00 0.00 0.00 62 1012.1
20260508174204 25 29 1.6 8.0 0.00 0.00 0.00 62 1012.2
20260508173704 26 111 1.6 4.8 0.00 0.00 0.00 60 1012.1
20260508172204 25 43 0.0 3.2 0.00 0.00 0.00 61 1012.3
20260508171705 25 177 0.0 3.2 0.00 0.00 0.00 62 1012.5
20260508171204 24 135 1.6 4.8 0.00 0.00 0.00 63 1012.6
20260508170704 24 75 0.0 4.8 0.00 0.00 0.00 63 1012.8
20260508170205 23 253 1.6 3.2 0.00 0.00 0.00 63 1013.0
20260508165704 23 127 0.0 3.2 0.00 0.00 0.00 63 1013.1
20260508165204 23 132 1.6 4.8 0.00 0.00 0.00 63 1013.3
20260508164204 23 88 3.2 8.0 0.00 0.00 0.00 62 1013.5
20260508162204 23 77 1.6 3.2 0.00 0.00 0.00 65 1013.8
20260508161704 22 71 0.0 4.8 0.00 0.00 0.00 66 1013.8
20260508161204 22 110 3.2 9.7 0.00 0.00 0.00 65 1013.8
20260508160704 22 136 3.2 4.8 0.00 0.00 0.00 64 1013.9
20260508160204 22 100 1.6 8.0 0.00 0.00 0.00 67 1013.9
20260508155704 21 140 1.6 4.8 0.00 0.00 0.00 66 1013.9
20260508155204 21 124 1.6 4.8 0.00 0.00 0.00 66 1014.1
20260508154705 21 140 1.6 8.0 0.00 0.00 0.00 65 1014.2
20260508154205 21 129 1.6 4.8 0.00 0.00 0.00 65 1014.2
20260508153704 21 104 0.0 4.8 0.00 0.00 0.00 67 1014.2
20260508152704 20 128 0.0 3.2 0.00 0.00 0.00 67 1014.3
20260508151204 20 87 1.6 4.8 0.00 0.00 0.00 66 1014.4
20260508150704 20 120 1.6 8.0 0.00 0.00 0.00 67 1014.5
20260508150204 20 134 0.0 9.7 0.00 0.00 0.00 67 1014.5
20260508145704 20 113 1.6 4.8 0.00 0.00 0.00 67 1014.3
20260508145204 20 147 1.6 4.8 0.00 0.00 0.00 67 1014.2
20260508144204 20 117 1.6 4.8 0.00 0.00 0.00 66 1014.3
20260508143705 20 212 0.0 8.0 0.00 0.00 0.00 67 1014.4
20260508143204 20 100 3.2 11.3 0.00 0.00 0.00 66 1014.4
20260508142204 21 153 3.2 9.7 0.00 0.00 0.00 66 1014.6
20260508141704 20 98 1.6 4.8 0.00 0.00 0.00 68 1014.6
20260508140704 20 114 1.6 9.7 0.00 0.00 0.00 69 1014.7
20260508135704 20 80 0.0 4.8 0.00 0.00 0.00 70 1014.7
20260508135204 19 130 0.0 4.8 0.00 0.00 0.00 70 1014.7
20260508134704 19 127 0.0 4.8 0.00 0.00 0.00 70 1014.6
20260508134204 19 174 1.6 3.2 0.00 0.00 0.00 71 1014.6
20260508133204 18 100 0.0 1.6 0.00 0.00 0.00 73 1014.5
20260508132704 17 107 0.0 3.2 0.00 0.00 0.00 74 1014.5
20260508132204 17 131 0.0 1.6 0.00 0.00 0.00 74 1014.7
20260508131704 17 295 0.0 3.2 0.00 0.00 0.00 74 1014.8
20260508131204 17 111 0.0 1.6 0.00 0.00 0.00 74 1014.8
20260508130703 17 118 0.0 4.8 0.00 0.00 0.00 74 1014.8
20260508130204 17 132 0.0 1.6 0.00 0.00 0.00 75 1014.7
20260508125703 17 136 0.0 1.6 0.00 0.00 0.00 75 1014.8
20260508125203 17 136 0.0 3.2 0.00 0.00 0.00 75 1014.9
20260508124704 17 77 0.0 0.0 0.00 0.00 0.00 76 1014.8
20260508124203 17 77 0.0 0.0 0.00 0.00 0.00 76 1014.7
20260508123704 17 77 0.0 0.0 0.00 0.00 0.00 76 1015.1
20260508123203 17 77 0.0 0.0 0.00 0.00 0.00 77 1015.1
20260508122204 16 77 0.0 0.0 0.00 0.00 0.00 77 1014.9
20260508121704 16 77 0.0 0.0 0.00 0.00 0.00 77 1014.8
20260508121204 16 77 0.0 0.0 0.00 0.00 0.00 77 1014.9
20260508115704 16 77 0.0 0.0 0.00 0.00 0.00 77 1015.1
20260508115203 16 77 0.0 0.0 0.00 0.00 0.00 77 1015.0
20260508114704 16 77 0.0 1.6 0.00 0.00 0.00 76 1015.0
20260508112703 16 135 0.0 1.6 0.00 0.00 0.00 75 1014.7
20260508112204 16 129 0.0 1.6 0.00 0.00 0.00 75 1014.8
20260508111704 17 51 0.0 0.0 0.00 0.00 0.00 74 1014.6
20260508111203 17 110 0.0 1.6 0.00 0.00 0.00 74 1014.7
20260508110204 17 226 0.0 1.6 0.00 0.00 0.00 74 1015.3
20260508105704 17 286 0.0 1.6 0.00 0.00 0.00 74 1015.6
20260508105204 17 301 0.0 1.6 0.00 0.00 0.00 75 1015.5
20260508104704 17 267 0.0 0.0 0.00 0.00 0.00 76 1015.2
20260508104203 16 271 0.0 1.6 0.00 0.00 0.00 77 1015.0
20260508103704 16 272 0.0 1.6 0.00 0.00 0.00 78 1014.7
20260508103203 16 117 0.0 0.0 0.00 0.00 0.00 78 1014.3
20260508102704 16 117 0.0 0.0 0.00 0.00 0.00 79 1014.1
20260508102204 16 117 0.0 0.0 0.00 0.00 0.00 79 1014.0
20260508101704 16 117 0.0 0.0 0.00 0.00 0.00 79 1014.1
20260508101204 16 117 0.0 0.0 0.00 0.00 0.00 79 1014.1
20260508100704 16 117 0.0 0.0 0.00 0.00 0.00 79 1014.1
20260508100204 16 117 0.0 0.0 0.00 0.00 0.00 78 1014.0
20260508095704 16 84 0.0 0.0 0.00 0.00 0.00 78 1014.0
20260508095203 16 153 0.0 0.0 0.00 0.00 0.00 78 1014.0
20260508094704 16 141 0.0 0.0 0.00 0.00 0.00 78 1013.9
20260508094204 17 270 0.0 0.0 0.00 0.00 0.00 78 1014.1
20260508093703 17 270 0.0 0.0 0.00 0.00 0.00 77 1014.2
20260508093203 17 270 0.0 0.0 0.00 0.00 0.00 77 1014.3
20260508092203 17 270 0.0 0.0 0.00 0.00 0.00 77 1014.3
20260508091704 17 270 0.0 0.0 0.00 0.00 0.00 77 1014.3
20260508090704 17 270 0.0 0.0 0.00 0.00 0.00 77 1014.3
20260508090204 17 270 0.0 0.0 0.00 0.00 0.00 77 1014.3
20260508085703 17 270 0.0 0.0 0.00 0.00 0.00 76 1014.4
20260508085204 17 189 0.0 0.0 0.00 0.00 0.00 77 1014.5
20260508084704 17 135 0.0 3.2 0.00 0.00 0.00 76 1014.4
20260508084205 17 133 0.0 3.2 0.00 0.00 0.00 76 1014.2
20260508083704 17 117 0.0 0.0 0.00 0.00 0.00 77 1014.2
20260508083205 17 18 0.0 0.0 0.00 0.00 0.00 77 1014.2
20260508082205 17 170 0.0 0.0 0.00 0.00 0.00 77 1015.0
20260508081704 17 277 0.0 0.0 0.00 0.00 0.00 76 1015.2
20260508081204 17 277 0.0 0.0 0.00 0.00 0.00 76 1015.3
20260508080704 17 277 0.0 0.0 0.00 0.00 0.00 75 1015.3
20260508080204 17 277 0.0 0.0 0.00 0.00 0.00 75 1015.4
20260508075704 17 276 0.0 0.0 0.00 0.00 0.00 75 1015.8
20260508075204 17 270 0.0 0.0 0.00 0.00 0.00 75 1016.0
20260508074705 17 269 0.0 0.0 0.00 0.00 0.00 75 1015.9
20260508074204 17 270 0.0 0.0 0.00 0.00 0.00 76 1015.8
20260508073704 16 248 0.0 0.0 0.00 0.00 0.00 76 1015.5
20260508073204 16 131 0.0 0.0 0.00 0.00 0.00 76 1015.1
20260508072205 16 131 0.0 0.0 0.00 0.00 0.00 76 1015.2
20260508071705 16 131 0.0 0.0 0.00 0.00 0.00 76 1015.4
20260508071204 16 131 0.0 0.0 0.00 0.00 0.00 76 1015.5
20260508070704 16 131 0.0 0.0 0.00 0.00 0.00 76 1015.4
20260508070204 16 131 0.0 0.0 0.00 0.00 0.00 76 1015.4
20260508065704 16 131 0.0 0.0 0.00 0.00 0.00 76 1015.5